Tracking 26442 objects as of 6-Dec-2022
HD Live streaming from Space Station
objects crossing your sky now

AEROCUBE 14A

Track AEROCUBE 14A now!
10-day predictions


NORAD ID: 45114
Int'l Code: 2019-071D
Perigee: 362.8 km
Apogee: 378.2 km
Inclination: 51.6 °
Period: 91.8 minutes
Semi major axis: 6741 km
RCS: Unknown
Launch date: November 2, 2019
Source: United States (US)
Launch site: WALLOPS ISLAND (WLPIS)
aabbcc
Your satellite tracking list
Your tracking list is empty




NASA's NSSDC Master Catalog

Two Line Element Set (TLE):
1 45114U 19071D   22340.24953511  .00109619  00000-0  94159-3 0  9991
2 45114  51.6301 277.6040 0011401 102.0218 258.2057 15.68435586160164
Source of the keplerian elements: Caltech